Regional Weather Roundup
Issued by NWS Sioux Falls, SD

Home | Current Version | Previous Version | Graphics & Text | Print | Product List | Glossary On
Versions: 1 2 3 4 5 6 7 8 9 10 11 12 13 14 15 16 17 18 19 20 21 22 23 24 25 26 27 28 29 30 31 32 33 34 35 36 37 38 39 40 41 42 43 44 45 46 47 48 49 50
000
ASUS43 KFSD 211502
RWRFSD

WEATHER ROUNDUP FOR SE SOUTH DAKOTA/SW MINNESOTA/NW IOWA
NATIONAL WEATHER SERVICE SIOUX FALLS SD
900 AM CST WED FEB 21 2018

NOTE: "FAIR" INDICATES FEW OR NO CLOUDS BELOW 12,000 FEET WITH NO
SIGNIFICANT WEATHER AND OR OBSTRUCTIONS TO VISIBILITY.


SDZ038>040-050-052>070-211600-
SOUTHEAST SOUTH DAKOTA

CITY           SKY/WX    TMP DP  RH WIND       PRES   REMARKS
BROOKINGS      CLOUDY    -4 -10  75 S6        30.51  WCI -16
CHAMBERLAIN    SUNNY     -6 -12  77 CALM      30.51R
HURON          SUNNY      0  -8  69 SE6       30.54R WCI -12
MADISON        FAIR      -4  -8  84 CALM      30.50R
MITCHELL       SUNNY      0  -8  69 S6        30.56R WCI -12
SIOUX FALLS    CLOUDY     0  -6  76 SW3       30.55R
WINNER         FAIR      -2 -11  65 S7        30.46R WCI -15
YANKTON        CLOUDY    -1  -5  82 CALM      30.58R
$$

MNZ071-072-080-081-089-090-097-098-211600-
SOUTHWEST MINNESOTA

CITY           SKY/WX    TMP DP  RH WIND       PRES   REMARKS
FAIRMONT       CLOUDY     7  -1  70 W7        30.59R WCI  -5
JACKSON        CLOUDY     3  -4  72 SW7       30.57R WCI  -9
LUVERNE        CLOUDY    -4  -8  84 CALM      30.56S
MARSHALL       CLOUDY     4  -6  63 SW8       30.56R WCI  -9
MONTEVIDEO     CLOUDY     7  -2  66 W8        30.55R WCI  -6
PIPESTONE      CLOUDY    -6  -9  84 W3        30.50R
REDWOOD FALLS  CLOUDY     3  -6  66 W7        30.57R WCI  -9
TRACY          CLOUDY     3  -4  72 SW10      30.54R WCI -13
WORTHINGTON    CLOUDY     5  -4  66 S7        30.56R WCI  -7
$$

IAZ001>003-012>014-020>022-031-032-NEZ013-014-SDZ071-211600-
NORTHWEST IOWA

CITY           SKY/WX    TMP DP  RH WIND       PRES   REMARKS
CHEROKEE       SUNNY      6   2  82 CALM      30.61R
DENISON        CLOUDY     9   3  78 CALM      30.63R
ESTHERVILLE    CLOUDY     4  -1  80 W5        30.57R WCI  -5
LE MARS        CLOUDY     3  -2  78 SW3       30.61F
ORANGE CITY    CLOUDY     1   0  92 CALM      30.58R
SHELDON        CLOUDY     3  -4  72 SW6       30.57R WCI  -8
SIOUX CITY     CLOUDY     4   1  88 SW3       30.64R
SPENCER        FLURRIES   5  -1  76 SW3       30.59R
STORM LAKE     SUNNY      7   1  78 NW6       30.57F WCI  -3
$$

ABBREVIATIONS USED IN REMARKS
   TC - TEMPERATURE IN CELSIUS
  WCI - WIND CHILL INDEX
   HX - HEAT INDEX
  VSB - VISIBILITY




USA.gov is the U.S. government's official web portal to all federal, state and local government web resources and services.